GW6414 Weather Reports


time (UTC)temp
C
wind
direction
speed
KPH
gust
KPH
rain 1hr
cm
rain 24hr
cm
rain mn
cm
humidity
%
barometer
mb
20260906225017 36 84 1.6 4.8 0.00 0.00 0.00 39 1010.5
20260906224017 37 136 3.2 11.3 0.00 0.00 0.00 39 1010.5
20260906223017 36 143 1.6 8.0 0.00 0.00 0.00 39 1010.5
20260906222017 36 107 3.2 11.3 0.00 0.00 0.00 38 1010.6
20260906221017 36 111 3.2 9.7 0.00 0.00 0.00 39 1010.6
20260906220018 37 127 3.2 8.0 0.00 0.00 0.00 39 1010.6
20260906215018 37 139 3.2 8.0 0.00 0.00 0.00 38 1010.6
20260906214018 37 90 4.8 8.0 0.00 0.00 0.00 38 1010.8
20260906213018 37 102 1.6 6.4 0.00 0.00 0.00 37 1010.9
20260906212038 37 126 3.2 9.7 0.00 0.00 0.00 38 1011.0
20260906211018 37 97 3.2 11.3 0.00 0.00 0.00 38 1011.1
20260906210058 37 85 3.2 9.7 0.00 0.00 0.00 38 1011.3
20260906205018 37 99 3.2 8.0 0.00 0.00 0.00 38 1011.5
20260906204018 37 123 3.2 6.4 0.00 0.00 0.00 40 1011.6
20260906203016 37 100 3.2 11.3 0.00 0.00 0.00 39 1011.6
20260906202016 37 80 4.8 8.0 0.00 0.00 0.00 41 1011.8
20260906201036 37 79 1.6 6.4 0.00 0.00 0.00 41 1011.9
20260906200016 37 97 4.8 8.0 0.00 0.00 0.00 40 1012.0
20260906195017 37 122 3.2 8.0 0.00 0.00 0.00 40 1012.1
20260906194016 37 127 4.8 9.7 0.00 0.00 0.00 40 1012.2
20260906193017 37 125 4.8 9.7 0.00 0.00 0.00 40 1012.3
20260906192016 37 66 3.2 9.7 0.00 0.00 0.00 42 1012.4
20260906191036 37 129 1.6 6.4 0.00 0.00 0.00 43 1012.5
20260906190017 37 87 3.2 9.7 0.00 0.00 0.00 42 1012.5
20260906185017 36 88 3.2 9.7 0.00 0.00 0.00 43 1012.6
20260906184017 36 109 3.2 11.3 0.00 0.00 0.00 44 1012.8
20260906183018 36 112 3.2 6.4 0.00 0.00 0.00 43 1013.0
20260906182017 36 97 3.2 8.0 0.00 0.00 0.00 43 1013.0
20260906181018 36 79 3.2 8.0 0.00 0.00 0.00 45 1013.2
20260906180018 36 101 3.2 6.4 0.00 0.00 0.00 45 1013.3
20260906175018 36 118 3.2 8.0 0.00 0.00 0.00 45 1013.4
20260906174018 36 117 3.2 8.0 0.00 0.00 0.00 45 1013.6
20260906173016 36 67 3.2 8.0 0.00 0.00 0.00 47 1013.8
20260906172016 36 107 1.6 6.4 0.00 0.00 0.00 47 1014.0
20260906171016 35 87 1.6 6.4 0.00 0.00 0.00 47 1014.0
20260906170016 35 101 1.6 6.4 0.00 0.00 0.00 49 1014.0
20260906165016 35 127 3.2 9.7 0.00 0.00 0.00 50 1014.2
20260906164016 35 137 1.6 8.0 0.00 0.00 0.00 52 1014.3
20260906163016 34 127 1.6 8.0 0.00 0.00 0.00 53 1014.3
20260906162017 34 144 3.2 9.7 0.00 0.00 0.00 53 1014.2
20260906161016 34 110 1.6 4.8 0.00 0.00 0.00 54 1014.3
20260906160017 33 129 1.6 6.4 0.00 0.00 0.00 56 1014.3
20260906155018 33 125 1.6 6.4 0.00 0.00 0.00 58 1014.3
20260906154017 32 109 1.6 8.0 0.00 0.00 0.00 60 1014.2
20260906153018 32 86 1.6 8.0 0.00 0.00 0.00 60 1014.1
20260906152017 32 146 3.2 9.7 0.00 0.00 0.00 62 1014.0
20260906151018 31 88 1.6 4.8 0.00 0.00 0.00 64 1014.0
20260906150018 31 87 1.6 6.4 0.00 0.00 0.00 66 1013.9
20260906145018 30 142 1.6 6.4 0.00 0.00 0.00 67 1013.9
20260906144019 30 149 1.6 11.3 0.00 0.00 0.00 68 1013.8
20260906143018 29 153 3.2 9.7 0.00 0.00 0.00 70 1013.8
20260906142026 28 151 1.6 4.8 0.00 0.00 0.00 72 1013.9
20260906141046 28 124 0.0 3.2 0.00 0.00 0.00 73 1014.0
20260906140026 28 126 0.0 1.6 0.00 0.00 0.00 75 1014.0
20260906135046 28 99 0.0 3.2 0.00 0.00 0.00 76 1014.0
20260906134027 27 175 0.0 3.2 0.00 0.00 0.00 77 1013.9
20260906133027 27 162 0.0 1.6 0.00 0.00 0.00 78 1013.9
20260906132027 27 77 0.0 1.6 0.00 0.00 0.00 80 1013.8
20260906131027 27 0.0 0.0 0.00 0.00 0.00 80 1013.8
20260906130107 26 0.0 0.0 0.00 0.00 0.00 81 1013.7
20260906125047 26 0.0 0.0 0.00 0.00 0.00 82 1013.7
20260906124108 26 0.0 0.0 0.00 0.00 0.00 82 1013.7
20260906123028 26 121 0.0 0.0 0.00 0.00 0.00 83 1013.5
20260906122048 25 0.0 0.0 0.00 0.00 0.00 83 1013.4
20260906121028 26 0.0 0.0 0.00 0.00 0.00 83 1013.3
20260906120028 26 0.0 0.0 0.00 0.00 0.00 82 1013.3
20260906115029 26 0.0 0.0 0.00 0.00 0.00 81 1013.2
20260906114029 26 0.0 0.0 0.00 0.00 0.00 81 1013.0
20260906113029 26 0.0 0.0 0.00 0.00 0.00 81 1013.0
20260906112029 26 0.0 0.0 0.00 0.00 0.00 81 1012.9
20260906111049 26 0.0 0.0 0.00 0.00 0.00 82 1013.0
20260906110015 26 0.0 0.0 0.00 0.00 0.00 82 1013.0
20260906105016 26 0.0 0.0 0.00 0.00 0.00 81 1012.8
20260906104016 26 0.0 0.0 0.00 0.00 0.00 81 1012.8
20260906103016 26 0.0 0.0 0.00 0.00 0.00 80 1012.7
20260906102016 26 0.0 0.0 0.00 0.00 0.00 80 1012.7
20260906101017 26 0.0 0.0 0.00 0.00 0.00 80 1012.6
20260906100017 26 0.0 0.0 0.00 0.00 0.00 79 1012.5
20260906095017 27 0.0 0.0 0.00 0.00 0.00 78 1012.4
20260906094037 27 0.0 0.0 0.00 0.00 0.00 77 1012.3
20260906093058 27 0.0 0.0 0.00 0.00 0.00 76 1012.2
20260906092038 27 0.0 0.0 0.00 0.00 0.00 75 1012.1
20260906091017 27 0.0 0.0 0.00 0.00 0.00 74 1012.1
20260906090018 27 141 0.0 1.6 0.00 0.00 0.00 73 1012.1
20260906085018 27 98 0.0 3.2 0.00 0.00 0.00 73 1012.1
20260906084018 28 0.0 0.0 0.00 0.00 0.00 73 1012.2
20260906083018 28 123 0.0 0.0 0.00 0.00 0.00 73 1012.1
20260906082019 28 135 0.0 3.2 0.00 0.00 0.00 72 1011.9
20260906081018 28 123 0.0 3.2 0.00 0.00 0.00 73 1012.0
20260906080019 28 123 0.0 1.6 0.00 0.00 0.00 73 1012.2
20260906075019 28 55 0.0 1.6 0.00 0.00 0.00 73 1012.2
20260906074019 28 156 1.6 4.8 0.00 0.00 0.00 72 1012.2
20260906073019 28 0.0 0.0 0.00 0.00 0.00 72 1012.2
20260906072019 28 130 0.0 1.6 0.00 0.00 0.00 72 1012.2
20260906071020 28 172 0.0 3.2 0.00 0.00 0.00 71 1012.4
20260906070040 28 144 0.0 1.6 0.00 0.00 0.00 70 1012.4
20260906065020 28 120 0.0 3.2 0.00 0.00 0.00 69 1012.5
20260906064020 29 0.0 0.0 0.00 0.00 0.00 68 1012.4
20260906063021 29 130 1.6 3.2 0.00 0.00 0.00 68 1012.4
20260906062020 28 137 1.6 3.2 0.00 0.00 0.00 68 1012.4
20260906061021 28 152 0.0 1.6 0.00 0.00 0.00 68 1012.4
20260906060041 28 0.0 0.0 0.00 0.00 0.00 68 1012.5
20260906055021 28 120 0.0 1.6 0.00 0.00 0.00 68 1012.4
20260906054021 28 0.0 0.0 0.00 0.00 0.00 68 1012.4
20260906053021 29 0.0 0.0 0.00 0.00 0.00 67 1012.4
20260906052021 29 0.0 0.0 0.00 0.00 0.00 67 1012.4
20260906051022 29 118 0.0 1.6 0.00 0.00 0.00 66 1012.4
20260906050022 29 133 0.0 3.2 0.00 0.00 0.00 65 1012.5
20260906045022 30 153 0.0 4.8 0.00 0.00 0.00 65 1012.4
20260906044022 30 126 0.0 3.2 0.00 0.00 0.00 65 1012.4
20260906043023 30 145 0.0 1.6 0.00 0.00 0.00 64 1012.3
20260906042022 30 110 0.0 1.6 0.00 0.00 0.00 63 1012.4
20260906041022 30 124 0.0 3.2 0.00 0.00 0.00 63 1012.3
20260906040023 30 139 0.0 0.0 0.00 0.00 0.00 62 1012.2
20260906035024 30 128 0.0 4.8 0.00 0.00 0.00 61 1012.5
20260906034023 31 144 1.6 4.8 0.00 0.00 0.00 60 1012.3
20260906033045 31 129 1.6 3.2 0.00 0.00 0.00 59 1012.2
20260906032024 31 142 1.6 4.8 0.00 0.00 0.00 58 1012.3
20260906031024 31 141 3.2 6.4 0.00 0.00 0.00 57 1012.5
20260906030024 31 147 3.2 8.0 0.00 0.00 0.00 57 1012.4
20260906025024 31 140 3.2 8.0 0.00 0.00 0.00 56 1012.3
20260906024036 31 145 3.2 9.7 0.00 0.00 0.00 55 1012.2
20260906023016 31 150 3.2 9.7 0.00 0.00 0.00 55 1012.1
20260906022016 31 145 3.2 8.0 0.00 0.00 0.00 55 1011.8
20260906021017 31 147 1.6 8.0 0.00 0.00 0.00 54 1011.7
20260906020037 32 140 4.8 9.7 0.00 0.00 0.00 54 1011.6
20260906015016 32 149 4.8 12.9 0.00 0.00 0.00 54 1011.4
20260906014017 32 146 4.8 11.3 0.00 0.00 0.00 54 1011.3
20260906013057 32 139 4.8 16.1 0.00 0.00 0.00 53 1011.2
20260906012017 33 137 4.8 14.5 0.00 0.00 0.00 50 1010.9
20260906011038 34 144 4.8 14.5 0.00 0.00 0.00 48 1010.7
20260906010018 35 132 3.2 11.3 0.00 0.00 0.00 43 1010.5
20260906005017 35 80 0.0 3.2 0.00 0.00 0.00 42 1010.5
20260906004018 35 117 1.6 4.8 0.00 0.00 0.00 41 1010.4
20260906003038 35 105 1.6 6.4 0.00 0.00 0.00 42 1010.4
20260906002019 36 122 3.2 6.4 0.00 0.00 0.00 40 1010.5
20260906001018 36 128 1.6 6.4 0.00 0.00 0.00 39 1010.5
20260906000016 37 101 1.6 4.8 0.00 0.00 0.00 38 1010.3
20260905235038 37 93 1.6 4.8 0.00 0.00 0.00 38 1010.2
20260905234016 37 89 1.6 6.4 0.00 0.00 0.00 37 1010.2
20260905233016 37 113 3.2 4.8 0.00 0.00 0.00 37 1010.1
20260905232016 37 111 1.6 6.4 0.00 0.00 0.00 37 1010.2
20260905231016 37 59 1.6 6.4 0.00 0.00 0.00 37 1010.2
20260905230016 37 80 3.2 6.4 0.00 0.00 0.00 36 1010.1